Portada
METAR-TAF:

METAR-TAF

Aeroports :

Alexander City, Alabama, Estats Units d'Amèrica

latitud: 32-54-53N, longitud: 085-57-46W, altitud: 209 m

Observació

L'informe es va fer fa 30 minuts, a les 19:55 UTC
Vent calma
Temperatura 26°C
Humitat 84%
Pressió 1013 hPa
Visibilitat: 16.1 km
Cel clar

METAR: KALX 151955Z AUTO 00000KT 10SM CLR 26/23 A2990 RMK AO2 LTG DSNT SE T02600229

Hora: 15:25 (20:25 UTC)


TAF: manca

Observacions i pronòstics meteorològics de més de 4000 aeroports (METAR i TAF).

Les estacions disponibles són els punts grocs i vermells al mapa.

Posi el ratolí al punt desitjat per veure el nom de l'estació.

Feu clic per veure les observacions i els pronòstics meteorològics.

Per canviar el mapa: feu clic els botons verds amb una creu de color negre per apropar; al botó verd amb un guió per allunyar la imatge; o en les fletxes verdes per a mapes adjacents.


METAR-TAF: